* Astronomy

Members Login
Username 
 
Password 
    Remember Me  
Post Info TOPIC: Wide Field Infrared Explorer


L

Posts: 131433
Date:
RE: Wide Field Infrared Explorer
Permalink  
 


Update
The Wide Field Infrared Explorer (WIRE) satellite re-entered the Earths atmosphere on the 10th May 2011 @ 06:50 GMT  ± 38 minutes.

Inclination:    97.24°
Revolution Number:    68352
Predicted  Location:    25.2°N, 96.7°E



__________________


L

Posts: 131433
Date:
Permalink  
 

Update
The Wide Field Infrared Explorer (WIRE) satellite is predicted to re-enter the Earths atmosphere on the 10th May 2011 @ 07:08 GMT  ± 2 hours.

WIRE
1 25646U 99011A 11130.09552592 .16821752 25548-5 37736-3 0 6083
2 25646 097.2346 068.9068 0008304 245.0327 115.0711 16.46088674683486

Period:          88.52 minutes
Inclination:    97.24°
Apogee:        205 km
Perigee:        198 km
Revolution Number:    68351
Predicted  Location:    77.4°N, 309.9°E



__________________


L

Posts: 131433
Date:
Permalink  
 

Update
The Wide Field Infrared Explorer (WIRE) satellite is predicted to re-enter the Earths atmosphere on the 10th May 2011 @ 07:07 GMT  ± 7 hours.

WIRE
1 25646U 99011A 11129.79104798 .06570114 24878-5 60521-3 0 6051
2 25646 097.2370 068.5604 0007728 225.3394 136.2046 16.38848906683433

Period:          88.52 minutes
Inclination:    97.24°
Apogee:        205 km
Perigee:        198 km
Revolution Number:    68351
Predicted  Location:    78°N, 311.8°E



__________________


L

Posts: 131433
Date:
Permalink  
 

Update
The Wide Field Infrared Explorer (WIRE) satellite is predicted to re-enter the Earths atmosphere on the 10th May 2011 @ 11:30 GMT  ± 24 hours.

WIRE
1 25646U 99011A 11128.50337703 .01944426 23969-5 56909-3 0 5974
2 25646 097.2444 067.0883 0003839 188.3061 171.8255 16.27345750683227

Period:          88.74 minutes
Inclination:    97.24°
Apogee:        217 km
Perigee:        208 km
Revolution Number:    68354
Predicted  Location:    71.7°N, 231.5°E



__________________


L

Posts: 131433
Date:
Permalink  
 

Update
The Wide Field Infrared Explorer (WIRE) satellite is predicted to re-enter the Earths atmosphere on the 10th May 2011 @ 11:36 GMT  ± 48 hours.

WIRE
1 25646U 99011A 11127.76482995 .01925631 23732-5 72340-3 0 5944
2 25646 097.2452 066.2676 0006511 171.5643 188.7007 16.24365421683100

Period:          88.89 minutes
Inclination:    97.24°
Apogee:        224 km
Perigee:        215 km
Revolution Number:    68354
Predicted  Location:    59.3°N, 220.6°E



__________________


L

Posts: 131433
Date:
WIRE satellite re-entry
Permalink  
 


Update
The Wide Field Infrared Explorer (WIRE) satellite is predicted to re-enter the Earths atmosphere on the 10th May 2011 @ 10:14 GMT  ± 48 hours.

WIRE
1 25646U 99011A 11126.77807948 .01543576 23541-5 75560-3 0 5885
2 25646 097.2511 065.1688 0006374 162.5055 197.7875 16.21066121682947

Period:          88.89 minutes
Inclination:    97.24°
Apogee:        224 km
Perigee:        215 km
Revolution Number:    68353
Predicted  Location:    33.4°N, 233.7°E



__________________


L

Posts: 131433
Date:
WIRE re-entry
Permalink  
 


Update
The Wide Field Infrared Explorer (WIRE) satellite is predicted to re-enter the Earths atmosphere on the 15th May 2011 @ --:-- GMT  ± -- hours.

WIRE
1 25646U 99011A 11122.81527154 .00940202 53680-3 89265-3 0 5769
2 25646 097.2432 060.7702 0007231 130.8296 229.3829 16.12005270682304

Period:          89.48 minutes
Inclination:    97.25°
Apogee:        254 km
Perigee:        244 km
Revolution Number:    -
Predicted  Location:    -



__________________


L

Posts: 131433
Date:
RE: Wide Field Infrared Explorer
Permalink  
 


Update

The Wide Field Infrared Explorer (WIRE) satellite is predicted to re-enter the Earths atmosphere on the 26th April 2011 @ --:-- GMT  ± -- hours.

WIRE
1 25646U 99011A 11098.23649212 .00295355 34817-4 88971-3 0 5180
2 25646 097.2593 034.1283 0006965 127.2740 232.9167 15.92168971678370

Period:          90.50 minutes
Inclination:    97.26°
Apogee:        304 km
Perigee:        294 km
Revolution Number:    -
Predicted  Location:    -



__________________


L

Posts: 131433
Date:
Permalink  
 

The Wide Field Infrared Explorer (WIRE) satellite that was launched on the 5th March, 1999, from the Vandenberg Air Force Base is scheduled to re-enter the Earths atmosphere on the 15th May 2011 @ --:-- GMT  ± -- hours.

WIRE
1 25646U 99011A 11088.41623500 .00151405 00000-0 56721-3 0 4964
2 25646 097.2585 023.6335 0005643 134.6885 225.4853 15.87479045676813


Period:          90.71 minutes
Inclination:    97.26°
Apogee:        313 km
Perigee:        306 km
Revolution Number:    -
Predicted  Location:    -

The Wide Field Infrared Explorer (WIRE) is a satellite launched on 5 March 1999 on the Pegasus XL rocket into a polar orbit between 409 km and 426 km above the Earth's surface.
Read more 



__________________
Page 1 of 1  sorted by
 
Quick Reply

Please log in to post quick replies.



Create your own FREE Forum
Report Abuse
Powered by ActiveBoard